Location: Drummondville
(45.8830°N, 72.4830°W)
Time: 14:06:08
(UTC-05:00)

OTV 5 (USA 277) - Pass Details

Date: 10 November 2017
Orbit: 404 x 417 km, 43.0° (Epoch: 07 September)

Event Time Altitude Azimuth Distance (km) Brightness Sun altitude
Exits shadow 05:21:54 13° 223° (SW) 1,262 ? -14.3°
Maximum altitude 05:24:20 32° 163° (SSE) 720 ? -13.9°
Drops below altitude 10° 05:27:19 10° 98° (E) 1,457 ? -13.4°
Sets 05:29:32 0° 88° (E) 2,319 ? -13.0°
